GFSFLT1_prec_cthk_003.txt.gz
RH
50 53 57 59 59 63 70 81 86 81 72 67 68 61 61 64 66 67 66 66 63 58 52 44 39 37 37 37 37 35 34 34
56 58 60 61 65 72 81 82 76 62 58 57 57 59 58 57 53 53 52 52 49 46 44 44 44 43 43 43 41 40 40 37
57 59 65 72 80 79 67 54 51 55 58 56 57 54 50 50 52 51 49 47 47 48 47 47 47 47 47 46 43 38 35 30
63 67 67 63 57 57 54 53 55 53 50 52 51 52 51 50 49 48 48 49 47 47 48 48 48 47 44 38 35 31 31 28
59 56 58 60 60 56 56 58 55 56 56 52 51 53 54 53 54 55 54 51 50 48 48 46 42 38 35 33 29 29 30 32
52 50 52 56 57 63 61 56 60 58 59 57 58 57 57 55 57 57 54 51 46 42 39 34 29 27 27 26 27 28 38 41
56 54 54 56 64 58 52 57 61 64 67 69 66 62 58 58 57 52 47 43 37 32 26 24 24 27 34 42 41 48 43 42
55 56 58 58 53 53 56 59 63 64 65 65 63 59 58 52 43 38 35 29 26 23 24 27 33 40 44 47 55 48 50 46
55 58 56 52 52 55 57 59 63 63 62 62 58 58 54 46 41 35 29 26 23 20 20 27 36 41 45 52 52 61 48 49
54 56 50 51 53 57 59 59 64 64 60 60 61 55 48 45 40 34 28 25 23 22 25 34 41 49 46 60 46 39 38 39
52 50 51 53 57 60 62 62 67 64 65 67 56 50 46 41 36 31 27 24 22 27 35 44 51 46 44 40 37 39 43 47
50 52 55 59 63 66 68 73 75 66 64 58 51 47 44 39 34 29 27 25 25 30 40 48 41 45 47 39 43 47 48 45
53 57 61 64 68 70 72 70 63 70 60 54 50 48 42 38 33 31 28 26 28 35 40 42 43 48 40 46 51 54 53 47
56 59 63 67 69 69 69 67 72 61 55 50 50 45 42 39 34 31 29 27 28 34 38 42 42 40 46 53 54 56 56 53
55 61 65 68 66 66 76 65 58 55 53 51 50 45 44 40 33 30 29 28 31 35 43 43 45 47 52 60 61 60 65 61
53 58 64 62 70 67 53 59 58 55 53 53 49 48 45 38 33 29 29 31 36 37 44 43 48 53 62 64 64 70 67 51
54 58 60 68 55 54 62 62 58 53 56 53 51 47 43 36 30 28 31 35 40 41 46 49 55 63 76 70 73 71 55 42
54 57 59 56 57 62 66 61 54 57 59 53 49 46 39 32 30 30 32 35 40 45 51 56 64 66 70 72 65 50 43 42
54 59 58 60 64 67 63 56 59 62 56 49 47 41 35 32 31 31 32 35 40 48 55 60 61 61 60 52 48 43 42 41

GFSFLT1_prec_cthk_006.txt.gz
RH
54 54 57 61 65 68 68 74 79 74 60 57 58 58 59 57 55 51 50 51 51 50 48 46 46 47 46 44 43 43 43 42
54 56 60 61 64 66 72 78 66 58 53 51 50 49 51 50 46 43 44 46 46 47 47 46 46 46 46 46 46 46 45 43
56 59 61 64 71 77 76 64 61 55 54 54 52 52 47 45 48 49 52 53 53 54 53 52 49 48 49 49 46 41 37 40
57 63 68 73 73 67 63 63 55 53 53 46 48 49 52 55 59 59 56 55 56 54 52 49 46 46 45 41 35 32 33 34
63 65 61 61 57 57 56 55 54 49 46 49 54 59 63 64 67 64 63 58 52 48 47 44 41 36 32 36 33 31 33 31
58 55 58 56 54 53 51 53 50 49 52 56 58 61 63 62 61 60 54 50 47 44 42 36 32 31 37 33 35 35 38 38
51 54 56 57 54 50 51 50 51 55 59 62 62 61 60 59 55 47 44 41 37 34 32 32 32 34 36 35 37 46 50 55
51 55 58 56 54 54 52 56 57 59 61 63 62 59 59 55 45 42 38 36 34 32 29 29 36 39 38 47 55 54 51 55
50 54 58 55 57 55 56 60 61 61 60 62 71 62 54 50 46 39 37 34 33 32 31 32 35 40 47 56 62 50 47 47
49 54 58 57 55 56 60 62 62 60 64 80 69 63 55 49 40 36 35 34 33 35 35 35 42 49 53 58 53 47 48 48
52 54 57 56 57 61 63 64 66 69 76 74 57 56 52 42 35 35 35 35 36 35 42 44 42 51 50 48 47 51 50 55
50 51 54 57 61 63 65 67 69 74 71 68 59 50 45 40 40 39 37 35 36 33 37 40 43 47 46 59 52 50 54 59
48 51 55 60 61 63 67 69 73 70 72 57 52 50 46 42 44 44 41 36 33 33 33 38 43 46 48 45 49 56 60 65
45 49 54 60 63 65 67 71 69 71 53 52 54 49 44 46 48 45 40 37 35 33 36 38 40 42 43 50 56 62 66 67
47 50 56 60 64 66 69 64 68 54 54 56 53 47 47 50 48 43 38 34 32 36 39 41 40 40 46 55 62 71 72 72
46 49 54 58 61 62 62 67 56 56 57 57 52 48 51 52 48 40 34 32 35 39 38 39 43 48 54 61 68 75 70 63
46 50 52 56 58 61 65 58 58 60 59 55 52 53 54 51 44 35 31 32 37 43 47 52 52 55 60 62 63 62 56 46
43 46 53 58 59 62 62 62 63 61 56 57 58 55 52 46 36 33 35 33 39 43 48 58 56 59 53 51 48 47 47 44
43 50 56 60 64 64 64 64 64 59 62 67 57 53 47 40 37 37 36 38 41 43 49 51 54 50 48 49 47 47 45 46

GFSFLT1_prec_cthk_009.txt.gz
RH
52 54 56 64 67 68 70 71 77 84 76 60 52 55 53 50 48 46 41 43 42 46 50 48 49 52 51 50 47 46 43 45
57 60 63 67 70 72 75 79 81 77 65 58 54 50 44 42 43 42 44 46 49 51 54 55 56 54 53 50 49 52 46 40
56 61 64 73 77 78 81 82 75 64 58 58 56 49 47 44 45 47 53 56 57 58 57 57 57 53 50 49 52 50 43 40
59 62 70 74 75 76 75 66 59 54 55 50 45 45 47 52 55 56 58 57 57 54 52 52 51 50 46 43 44 48 41 38
60 65 67 72 75 72 66 59 55 51 49 47 49 53 56 58 59 58 59 59 53 48 45 44 46 45 43 41 47 48 41 43
59 67 67 66 65 64 61 55 50 47 46 48 51 55 61 63 60 59 56 47 41 37 34 34 35 39 42 43 50 49 45 44
64 61 61 58 57 58 55 51 49 49 50 52 55 60 61 66 63 61 52 43 39 33 34 35 34 38 44 51 50 45 49 49
52 53 49 53 56 53 51 51 51 52 54 56 56 59 68 68 63 50 42 40 35 34 36 37 39 42 47 41 39 43 55 58
46 46 45 48 52 52 51 51 51 53 55 56 57 65 74 72 50 46 41 36 34 35 39 42 46 44 41 44 54 54 57 62
41 44 47 49 54 53 53 53 53 54 58 63 67 68 66 59 51 43 39 36 35 41 43 47 46 44 51 53 46 46 53 51
40 42 47 51 53 55 54 53 52 57 65 64 63 66 62 56 44 42 40 38 40 42 40 41 45 49 46 48 51 50 60 59
39 41 47 47 51 53 54 54 55 62 67 64 65 65 63 48 45 44 42 43 45 40 37 37 39 44 50 51 50 46 59 60
41 43 44 46 50 52 54 56 60 65 68 69 64 60 52 48 48 47 46 49 44 38 39 40 45 44 43 41 47 49 55 65
42 42 44 46 50 52 55 60 63 67 70 67 64 62 53 52 52 50 53 47 41 42 42 46 46 46 48 54 52 59 67 68
43 43 46 49 52 56 61 65 65 68 68 68 63 59 58 55 55 58 54 45 41 41 46 46 44 48 47 51 55 59 63 70
40 45 50 54 57 61 64 62 66 65 74 66 62 61 60 61 61 58 52 44 42 42 47 47 52 56 53 46 52 59 62 59
41 45 50 53 55 58 60 63 66 71 69 68 63 68 69 65 60 58 49 44 44 47 51 50 54 57 53 53 43 45 46 49
39 43 48 53 54 56 62 69 69 70 73 65 71 76 72 63 60 53 51 50 52 52 53 49 53 55 51 44 44 49 51 50
43 46 48 52 56 59 70 70 68 78 65 79 82 79 68 62 54 52 53 56 59 57 53 53 54 50 50 48 53 54 53 51

GFSFLT1_prec_cthk_012.txt.gz
RH
44 46 52 58 58 61 64 62 63 69 78 68 58 50 50 44 38 37 37 36 38 41 43 43 45 49 50 49 46 44 47 49
50 49 53 60 63 64 63 68 70 74 78 59 49 49 44 37 37 37 39 42 44 45 47 49 48 45 42 38 38 42 42 41
53 54 54 58 66 69 72 71 71 70 61 54 54 51 41 39 39 42 44 45 47 51 51 46 42 39 35 36 38 37 38 42
55 56 59 65 69 72 72 75 70 61 50 48 48 42 42 46 47 47 49 50 55 56 47 41 37 33 33 34 37 40 42 42
52 56 59 64 69 73 71 71 61 53 50 46 46 46 47 48 50 55 54 55 52 45 36 33 31 29 30 34 40 41 40 39
47 51 56 64 66 68 69 62 53 51 48 48 47 46 48 48 53 58 58 58 50 40 37 33 30 28 29 35 41 42 39 35
48 48 54 62 66 62 58 53 51 49 48 46 45 47 48 48 53 58 61 49 42 36 35 32 30 32 36 41 40 37 36 38
49 52 58 64 59 51 50 50 48 49 47 46 46 49 50 52 57 54 53 51 41 35 35 33 31 39 40 37 36 36 35 40
53 56 57 57 50 49 50 48 48 47 46 46 48 53 57 57 56 52 54 54 42 36 36 33 40 43 40 32 35 41 41 44
48 50 47 44 44 46 47 48 48 47 46 47 51 56 61 62 56 51 51 44 37 39 35 40 44 46 38 39 38 40 40 43
41 42 40 39 41 46 47 49 48 45 46 51 56 61 66 64 56 51 53 45 40 39 42 43 37 38 45 47 43 47 47 45
33 34 37 38 40 44 46 50 49 47 50 56 59 65 66 65 61 62 56 44 42 47 46 41 36 38 43 44 45 43 47 48
33 34 37 38 41 45 46 52 50 49 54 59 65 68 69 72 62 58 49 48 53 52 45 40 43 50 48 41 42 44 52 50
35 37 39 40 44 49 50 54 54 56 61 69 72 71 81 73 73 60 54 58 58 53 47 46 54 51 47 48 51 54 54 60
40 44 45 46 48 51 56 59 60 67 69 76 73 75 78 74 68 62 65 69 62 54 51 53 59 51 56 56 60 56 52 51
44 48 53 54 51 54 59 62 64 67 70 74 77 78 75 72 69 71 76 74 60 57 55 63 63 58 64 64 59 50 47 43
39 46 51 53 58 61 62 62 61 64 76 74 76 76 76 80 84 76 70 65 62 64 66 65 65 64 62 59 56 51 37 41
34 42 49 53 54 56 59 60 62 67 75 75 76 79 83 88 80 75 73 66 74 71 70 73 69 65 51 49 50 46 50 51
40 39 41 45 51 54 59 63 66 71 75 76 78 86 91 89 83 74 66 77 68 71 73 76 65 61 60 53 51 52 56 47

GFSFLT1_prec_cthk_015.txt.gz
RH
38 38 41 47 52 53 54 53 53 56 61 66 63 50 45 43 35 31 32 35 37 40 44 45 46 45 42 39 35 30 29 31
44 39 43 47 51 54 53 54 55 54 56 54 46 43 39 36 34 34 36 39 42 44 48 49 45 38 35 32 30 30 30 30
41 39 40 43 45 52 57 58 58 57 60 56 47 41 42 39 37 40 42 45 47 48 51 49 38 33 31 30 30 29 30 32
42 42 40 42 46 55 63 65 61 64 64 56 51 48 45 41 40 43 46 49 49 48 50 41 31 29 29 29 29 31 33 35
40 48 45 46 50 58 60 60 62 63 61 56 54 52 45 42 43 44 46 45 45 46 44 40 32 28 27 26 29 32 33 34
40 46 52 55 57 65 69 64 61 59 55 51 51 49 46 45 46 47 46 49 47 45 48 45 37 33 31 31 35 37 37 37
47 48 52 55 57 61 62 61 60 57 49 49 47 46 46 46 48 48 52 54 49 46 43 41 35 33 34 38 40 38 37 38
45 46 54 52 53 59 59 58 59 53 51 50 49 48 48 48 50 54 58 58 49 40 44 43 35 35 39 42 37 32 34 36
45 48 50 53 53 55 53 54 48 51 49 48 51 50 49 52 56 61 61 54 51 47 50 46 37 41 47 47 40 38 37 40
51 56 52 51 51 52 51 46 46 48 48 50 53 51 54 58 63 63 59 58 68 54 45 39 40 45 48 49 47 46 43 45
44 45 45 46 50 54 54 50 48 47 48 54 57 59 61 64 66 67 75 72 64 55 61 50 48 48 50 51 52 53 58 57
36 36 39 41 43 45 44 43 44 48 52 58 59 63 69 77 74 80 74 72 65 58 54 55 54 56 57 51 52 56 59 60
34 34 34 34 35 35 37 43 48 52 56 59 64 74 80 77 74 78 77 68 60 58 62 62 56 59 58 56 56 60 59 59
37 36 36 34 34 38 43 47 51 58 64 66 71 77 76 72 78 78 71 67 69 75 72 61 62 62 63 60 64 66 63 60
41 42 42 44 47 49 55 60 64 67 67 64 66 73 71 78 79 79 75 79 78 69 64 64 69 75 72 72 69 66 62 59
43 44 52 57 59 66 70 73 71 68 65 62 65 67 72 77 78 78 87 80 73 75 73 78 76 79 74 65 57 59 55 59
27 35 48 51 59 65 68 68 64 64 64 67 68 68 72 75 83 89 86 81 76 83 81 80 82 78 74 62 60 57 50 44
32 35 40 44 46 50 51 51 58 64 73 73 70 72 75 81 91 92 89 83 85 82 79 79 77 76 66 62 60 56 52 49
36 36 38 41 44 46 51 61 67 72 72 71 74 80 83 89 96 92 88 86 82 75 74 74 74 68 61 58 62 57 50 55

GFSFLT1_prec_cthk_018.txt.gz
RH
44 45 44 43 43 43 46 46 50 53 55 54 52 49 40 36 35 31 27 27 29 32 34 36 39 43 39 33 32 30 27 28
49 45 46 47 49 42 50 54 56 56 55 51 53 45 39 38 35 31 29 30 34 36 38 41 44 45 36 31 29 29 29 27
43 42 43 46 46 47 53 57 59 58 56 52 53 45 44 40 36 32 32 34 38 43 44 45 46 46 40 38 35 35 30 30
38 40 43 43 45 50 57 62 61 60 57 56 55 47 45 42 39 37 38 41 45 48 46 44 42 43 40 36 33 31 32 34
38 39 46 40 41 50 59 65 63 59 58 57 58 49 46 45 43 42 44 48 48 49 51 48 41 35 37 38 35 31 34 40
37 41 45 42 46 54 58 59 62 61 59 61 57 50 49 48 48 47 50 51 51 52 54 51 46 44 40 39 37 38 42 45
53 52 48 50 58 60 65 56 63 63 65 61 55 53 53 52 55 56 58 59 60 60 57 54 55 58 55 46 45 44 44 44
54 49 51 59 65 64 57 57 61 65 60 61 60 61 60 59 60 63 63 62 63 65 64 60 58 64 51 56 56 54 50 49
50 53 60 60 61 57 58 57 58 61 63 64 67 68 62 63 66 66 65 66 68 66 77 76 58 55 50 56 55 56 56 52
46 55 52 51 51 49 51 56 59 58 62 64 68 71 65 65 68 68 68 67 79 82 73 60 59 56 51 51 57 60 59 57
38 40 40 42 42 44 46 48 54 61 61 66 70 71 68 68 68 69 73 83 81 66 65 59 57 56 59 58 58 61 57 58
32 32 30 32 38 41 44 49 51 59 64 65 67 69 74 78 83 81 89 78 73 70 64 63 65 73 64 60 64 64 65 70
30 31 32 34 35 37 40 45 51 53 55 58 62 69 74 76 76 71 70 75 76 70 72 76 71 60 63 68 75 80 73 71
36 38 39 41 42 42 43 45 49 57 65 73 74 73 75 69 65 66 72 75 73 77 79 71 71 76 77 80 80 71 71 71
40 44 44 42 41 49 53 53 64 72 71 77 78 74 69 66 68 70 72 74 77 78 76 77 75 79 85 83 78 73 72 68
41 45 47 43 45 53 58 67 74 77 77 75 71 69 69 70 68 70 74 81 84 84 79 82 83 81 81 80 78 78 69 60
40 39 30 34 41 51 60 65 74 72 68 66 68 71 70 68 72 76 79 83 87 86 90 82 82 78 78 79 72 63 62 66
35 30 30 32 33 37 46 53 59 58 64 68 71 71 72 76 77 79 83 86 92 89 83 80 73 71 76 72 63 62 59 66
36 36 34 31 31 36 44 53 59 64 69 72 72 77 79 78 77 80 87 96 90 85 78 74 71 66 60 58 56 52 51 50

GFSFLT1_prec_cthk_021.txt.gz
RH
37 39 42 38 40 43 46 46 50 54 56 58 62 53 48 46 41 38 36 29 28 29 31 33 35 35 36 38 40 35 33 33
42 41 42 41 36 41 46 50 53 55 59 60 58 54 53 47 43 39 33 31 31 32 34 38 38 36 34 36 37 37 35 34
40 42 43 42 43 41 45 53 56 59 61 60 60 59 57 50 45 41 36 35 35 36 38 40 41 44 43 39 35 39 40 39
37 40 43 45 46 46 44 52 57 62 61 63 63 63 59 50 46 43 41 41 41 43 45 47 48 47 47 47 50 47 48 44
41 43 42 42 49 53 55 57 61 66 63 63 62 64 73 48 47 44 45 46 49 50 50 50 52 56 60 54 50 56 49 52
42 44 53 55 51 57 58 60 69 68 64 64 61 63 70 54 51 50 50 52 55 56 55 54 55 59 58 64 67 61 56 52
50 55 57 54 55 57 66 70 69 71 62 62 61 65 65 68 64 62 61 61 60 59 58 57 64 74 83 69 61 56 57 59
49 50 56 57 56 61 63 63 65 66 58 54 63 65 69 72 71 73 70 68 66 67 62 66 73 91 74 59 58 60 60 60
46 52 60 59 61 60 61 59 72 64 66 63 64 73 72 80 80 79 76 73 71 70 65 86 93 76 59 63 59 61 66 65
38 49 51 55 54 53 57 59 55 57 63 64 65 74 83 83 79 80 81 80 79 77 83 82 71 70 62 55 65 74 68 66
31 35 37 41 41 41 43 47 48 53 52 55 61 76 80 78 80 83 82 83 82 80 77 76 75 66 65 78 69 68 69 66
28 27 30 32 32 34 39 42 45 50 55 58 60 65 72 77 78 78 82 83 76 73 73 76 71 74 73 70 72 75 73 78
25 28 32 34 34 38 38 41 45 51 57 60 69 80 82 83 85 88 87 74 70 74 73 74 79 78 85 81 75 75 73 66
30 31 35 39 41 43 42 47 59 67 73 80 82 83 85 86 87 83 73 72 76 74 79 82 84 91 81 79 77 71 68 71
33 34 41 51 50 51 58 58 63 68 75 80 84 81 81 85 78 74 74 73 76 82 85 87 92 82 81 73 75 74 73 76
36 40 46 50 51 47 49 54 56 65 71 74 74 73 72 74 76 74 72 76 82 81 80 89 85 80 80 77 75 79 76 69
37 39 41 41 38 36 39 43 49 53 60 60 64 65 70 76 72 72 77 80 80 82 93 93 87 84 74 75 74 70 66 60
39 38 37 36 36 35 33 32 38 45 52 56 66 70 72 73 76 77 77 79 87 92 93 94 87 73 67 63 59 55 54 52
38 39 38 36 32 29 29 33 42 51 58 62 66 76 81 79 79 79 80 91 97 85 86 86 71 63 60 56 44 45 46 47

GFSFLT1_prec_cthk_024.txt.gz
RH
43 42 40 42 46 48 46 48 51 52 52 52 58 58 56 55 51 48 46 42 39 35 34 35 36 38 39 37 36 31 30 34
42 42 42 38 39 43 46 51 51 54 53 54 63 62 66 59 51 50 48 43 39 35 36 37 38 39 40 41 40 41 48 48
39 40 40 38 35 38 43 48 51 56 58 58 62 63 62 59 57 49 49 43 38 37 39 39 41 43 44 46 54 57 60 58
39 41 40 40 37 37 39 48 54 57 58 59 62 62 62 64 62 50 46 41 41 43 45 47 47 48 50 56 64 72 75 64
42 41 44 47 46 41 45 51 56 62 63 61 61 59 62 65 68 58 53 53 52 52 56 56 59 61 60 70 74 84 79 67
45 45 47 50 57 47 49 55 59 64 66 66 65 64 67 67 70 67 61 64 63 63 64 62 66 69 70 76 88 91 82 61
52 56 57 62 63 56 55 66 67 64 74 78 67 62 65 69 71 75 73 74 75 75 72 73 77 75 78 82 78 71 65 62
51 53 58 62 63 62 61 68 68 62 82 80 73 64 64 71 72 79 81 83 81 79 79 79 81 83 79 81 78 72 60 56
43 44 48 54 62 62 60 61 63 65 80 85 75 73 74 72 81 82 88 85 82 81 82 81 79 79 74 79 71 60 68 75
38 36 44 58 62 62 57 53 52 54 62 63 64 66 71 76 88 91 87 84 80 90 81 84 78 76 83 69 69 73 73 64
28 31 31 36 44 47 43 42 41 46 53 61 68 68 74 78 79 78 86 84 87 87 86 79 75 78 71 73 73 74 68 68
27 27 27 26 28 30 29 32 38 49 62 74 70 74 77 82 87 89 90 89 89 86 80 76 77 74 73 75 83 73 74 72
30 25 22 25 28 33 36 41 51 63 66 69 77 81 86 89 92 95 93 91 85 80 80 74 72 74 81 85 73 74 74 70
25 24 27 29 37 43 53 67 65 61 68 70 73 81 87 92 93 94 85 81 74 76 76 75 83 84 91 80 81 80 72 70
27 28 32 36 43 52 62 64 57 51 54 57 65 74 77 80 85 85 75 72 74 79 82 85 84 88 94 90 85 77 70 71
31 33 37 41 48 50 51 48 45 44 48 54 60 68 71 76 77 70 73 77 79 85 81 84 91 98 95 91 82 68 63 62
34 35 36 38 39 38 37 34 34 35 37 42 53 64 64 67 72 76 82 86 83 85 87 95 95 97 90 87 72 66 62 55
37 37 37 36 34 32 32 32 29 28 32 41 51 57 64 74 76 82 86 85 88 87 90 97 96 91 78 67 59 59 53 38
39 38 37 36 34 32 29 28 30 35 43 48 54 59 68 77 81 84 84 83 95 95 88 88 88 86 77 63 64 46 36 37

GFSFLT1_prec_cthk_027.txt.gz
RH
36 35 41 43 46 45 46 47 46 43 41 47 53 58 58 61 57 51 48 48 46 44 36 33 32 37 38 40 41 40 40 43
42 40 41 45 47 48 48 51 50 49 49 51 56 56 55 62 59 57 51 50 47 42 38 35 39 42 44 47 46 46 50 60
42 42 40 38 40 45 50 53 53 56 58 59 63 64 66 74 64 57 50 48 45 43 41 45 47 50 53 56 56 57 63 68
40 40 39 37 36 38 42 48 55 57 61 61 60 64 76 69 66 64 58 55 53 54 57 59 59 58 57 58 63 70 75 80
42 42 41 43 42 41 38 43 51 60 62 64 60 61 66 67 67 66 67 60 57 58 61 63 63 62 62 65 77 85 84 80
42 43 47 50 51 53 48 46 51 58 60 65 64 62 65 69 74 67 69 74 68 64 66 67 69 73 76 77 84 93 86 81
49 53 54 52 59 60 63 58 58 61 61 68 72 68 69 63 67 68 73 75 83 75 77 79 82 79 81 80 81 81 81 74
49 49 53 55 57 63 65 63 61 68 68 59 73 77 79 82 81 75 78 78 87 88 87 88 86 83 85 84 75 78 74 62
43 46 52 55 59 66 65 64 63 62 64 70 75 75 82 85 87 88 88 87 91 91 91 86 81 85 92 90 79 79 68 68
33 41 45 47 51 57 69 69 69 61 54 52 55 63 73 81 82 83 87 93 94 90 89 87 85 95 84 80 78 75 73 76
28 26 31 36 45 59 71 70 58 47 45 49 59 76 84 83 84 88 88 90 94 95 92 85 96 80 73 78 77 77 85 73
34 27 28 29 30 36 45 52 36 36 41 56 71 78 79 80 82 87 92 95 98 98 91 93 79 70 82 77 82 86 79 74
40 34 32 23 20 22 23 28 36 44 67 74 71 73 75 76 79 91 94 96 97 94 87 72 69 80 81 88 83 86 83 82
35 33 31 31 31 33 38 43 52 65 68 66 60 58 60 69 77 87 91 90 87 86 75 71 81 83 85 82 93 92 86 78
30 31 35 37 39 41 47 49 52 56 56 54 51 51 55 62 69 73 74 77 76 78 70 74 79 84 92 95 94 92 84 82
35 37 38 38 39 42 46 46 45 44 43 40 38 41 47 52 59 62 69 74 80 78 78 85 82 97 97 95 95 89 83 78
39 39 39 38 37 38 41 40 37 33 32 34 34 34 42 52 61 64 70 77 78 78 77 87 87 92 96 97 95 81 71 63
41 41 41 40 39 39 37 35 31 31 29 29 34 42 49 54 60 67 75 83 76 82 81 96 91 93 93 93 88 78 66 55
45 44 42 41 39 37 34 32 30 29 32 38 43 47 51 58 67 73 79 78 85 95 90 94 91 85 84 81 79 67 51 42

GFSFLT1_prec_cthk_030.txt.gz
RH
38 45 50 51 54 54 51 52 51 51 51 50 51 55 69 72 69 63 52 47 46 45 41 39 36 33 32 37 40 45 49 51
39 44 44 51 52 52 54 56 56 53 52 49 52 61 61 64 62 59 52 49 48 47 42 42 38 39 45 46 50 52 53 58
41 43 46 48 50 52 55 56 58 59 56 51 53 57 62 60 64 63 57 52 51 48 47 52 52 53 53 55 54 56 60 65
42 42 42 39 41 45 49 53 58 59 58 57 60 62 63 66 73 69 73 62 55 54 55 56 56 59 60 61 58 58 68 73
39 40 38 38 39 40 41 44 51 55 58 64 61 59 63 68 77 79 73 67 65 60 60 62 60 62 63 63 67 74 80 79
36 37 41 44 44 45 47 48 50 53 60 60 64 69 69 67 66 78 74 71 72 76 76 70 66 66 68 73 75 82 88 77
47 41 46 46 48 54 56 56 61 62 63 64 68 76 78 77 73 72 69 74 80 82 82 85 75 76 78 82 82 90 91 87
56 58 53 55 57 56 62 67 71 72 70 69 73 69 76 83 82 85 88 90 89 89 88 90 89 90 89 84 82 95 91 84
51 52 54 57 64 64 66 65 71 72 68 70 72 71 76 80 78 86 94 93 92 92 91 94 93 91 88 80 94 93 85 76
45 49 51 57 61 62 67 71 74 77 73 74 69 68 65 65 76 82 85 87 88 88 92 96 94 90 84 89 95 85 75 77
40 38 38 43 56 63 61 67 74 79 78 69 60 54 55 68 89 88 89 90 91 88 90 93 95 95 89 97 82 76 80 89
37 38 37 33 36 42 49 56 62 67 71 57 50 49 65 79 78 84 86 86 91 92 95 97 98 94 91 80 75 78 79 92
36 36 40 39 36 32 34 42 49 50 42 42 47 66 70 65 63 62 71 82 83 88 93 91 85 81 80 73 80 84 94 98
35 37 45 39 31 33 33 32 34 39 44 55 62 60 65 67 61 58 62 61 65 75 80 78 77 79 77 79 86 93 96 91
29 34 36 37 39 39 40 40 43 49 50 52 56 55 54 53 49 51 54 58 60 71 74 75 74 77 75 83 90 97 96 92
33 36 41 44 46 45 47 47 52 57 53 49 48 44 40 41 43 46 52 59 65 69 73 67 77 84 82 92 97 96 96 96
41 40 44 48 50 51 48 48 48 47 45 39 35 34 36 36 41 49 55 59 62 61 65 71 78 88 93 98 97 93 94 92
44 47 49 48 47 48 46 43 42 41 38 36 35 34 36 42 47 51 54 58 62 66 71 81 83 83 90 90 89 89 85 77
43 44 45 47 48 45 42 41 39 37 34 33 33 37 42 48 53 58 62 65 71 74 77 81 84 84 84 84 85 78 70 64

GFSFLT1_prec_cthk_033.txt.gz
RH
50 46 48 49 50 51 61 74 77 74 68 56 52 52 55 70 77 75 73 66 51 45 49 40 40 40 36 38 44 47 50 50
40 51 48 51 50 46 48 48 56 64 68 59 56 53 61 80 80 79 67 55 49 48 49 45 42 40 49 52 52 52 55 51
40 41 52 54 51 51 54 54 54 58 55 58 55 56 61 67 72 75 66 58 52 49 54 50 52 53 56 55 55 59 59 59
37 40 46 49 54 53 58 59 61 63 65 63 55 53 62 66 62 68 68 66 67 60 57 56 59 58 56 56 61 63 62 67
42 38 38 38 40 44 47 53 56 58 61 61 59 63 63 67 69 73 76 78 77 74 73 65 62 63 62 65 65 65 65 74
37 36 35 33 35 38 42 47 49 55 54 56 60 64 66 70 68 67 70 75 78 77 77 78 84 86 78 71 67 67 70 83
47 41 37 38 40 39 42 48 49 54 60 64 62 68 71 76 80 81 77 76 76 81 83 91 95 92 88 87 77 73 80 95
55 57 55 57 54 48 51 53 54 58 62 69 67 68 77 77 77 78 82 81 82 88 93 95 96 95 91 91 92 93 94 94
54 56 60 62 61 64 65 65 68 69 74 70 77 69 76 79 73 75 76 85 90 97 88 91 92 93 90 95 93 95 95 98
52 56 59 64 65 66 64 68 70 73 72 81 85 76 75 75 68 63 68 71 78 85 91 88 89 90 92 95 97 92 94 96
43 50 56 63 64 67 64 66 71 74 75 81 90 85 75 72 64 61 65 75 73 73 80 82 84 89 93 97 96 93 93 86
41 42 44 48 53 56 59 63 67 69 70 72 70 74 73 68 59 60 70 64 64 63 67 72 72 80 84 93 88 86 80 76
39 41 45 44 45 48 50 53 53 59 65 64 66 63 54 52 68 70 70 69 70 65 61 60 63 71 78 84 80 82 84 82
33 36 40 42 46 50 52 49 47 50 56 61 60 47 55 62 62 61 60 57 55 55 55 58 63 73 82 76 79 77 89 93
35 38 35 38 42 44 47 51 50 50 50 51 56 58 60 62 59 55 56 54 54 56 59 63 71 73 76 81 78 80 96 96
35 43 43 42 42 46 49 46 46 48 55 61 65 66 61 55 51 44 42 42 46 53 64 68 69 75 73 76 85 88 88 95
37 43 44 47 50 52 52 54 57 63 60 57 54 53 50 44 40 41 42 47 51 56 60 65 66 68 71 79 84 84 86 85
37 39 43 48 50 55 57 59 59 56 55 52 48 45 42 40 38 40 46 48 52 57 62 65 68 71 75 75 79 81 75 77
35 42 45 49 50 57 58 54 52 51 49 46 44 40 36 35 40 45 49 53 57 61 64 66 67 68 68 68 70 74 71 63

GFSFLT1_prec_cthk_036.txt.gz
RH
41 37 51 51 50 48 53 56 52 54 58 63 62 57 60 61 61 65 68 62 66 57 54 50 46 44 42 38 39 43 48 51
42 40 36 42 45 46 48 48 51 58 66 55 58 50 50 51 65 77 71 77 63 54 54 52 49 46 44 48 47 49 52 56
37 39 39 41 39 41 45 49 51 56 56 48 46 44 43 45 59 70 80 92 57 53 53 52 51 55 58 55 54 53 54 60
34 35 38 42 41 39 42 45 45 48 52 46 49 50 46 45 54 55 65 82 64 58 61 61 60 59 56 55 59 58 61 63
34 33 36 40 40 40 41 41 40 43 49 53 57 52 50 53 57 58 61 67 73 73 78 80 78 76 74 70 74 70 68 68
37 31 32 36 36 38 39 43 45 48 49 54 61 59 53 57 66 70 69 66 65 70 77 84 84 81 80 80 91 93 87 81
47 46 42 38 38 36 38 40 44 47 54 55 61 62 62 67 75 73 74 77 77 82 86 87 88 92 95 96 95 95 93 89
48 49 50 48 46 45 44 43 48 52 55 56 65 69 70 71 75 75 74 82 76 76 75 82 87 94 95 92 94 97 95 91
49 47 50 52 51 51 52 53 53 56 58 60 62 72 70 81 81 83 78 80 65 65 77 82 81 83 86 86 87 90 90 94
48 65 51 57 58 55 55 59 59 61 64 67 67 74 80 81 81 91 78 75 66 65 75 73 68 67 71 78 79 76 87 88
41 57 53 61 65 63 57 53 53 62 65 66 69 66 76 83 81 90 90 79 67 74 75 72 70 69 67 67 66 79 75 86
30 34 45 56 63 72 79 56 76 63 71 70 76 71 79 82 80 83 72 67 68 72 68 66 58 58 59 61 64 71 85 80
34 31 34 38 45 58 65 69 66 66 65 71 89 80 81 79 79 61 55 71 68 65 61 56 56 58 66 66 67 71 71 94
34 30 30 33 37 45 53 58 60 62 63 68 80 71 70 81 60 58 65 68 64 61 57 57 58 61 61 64 65 80 74 80
30 34 29 28 30 36 43 49 53 54 59 60 59 65 70 58 60 64 67 64 59 56 49 46 51 54 65 63 74 71 84 78
32 37 41 36 33 34 37 38 42 53 59 59 51 53 58 67 67 64 57 53 47 46 45 49 53 59 62 68 70 74 73 78
34 33 43 44 44 42 39 39 45 50 52 54 63 66 65 59 55 52 44 43 41 42 47 51 56 58 64 66 70 73 74 74
29 33 39 45 46 45 47 47 50 55 60 66 64 60 56 53 50 46 43 40 41 45 48 52 57 61 66 68 66 66 67 66
33 41 36 39 42 44 50 53 54 56 63 57 54 54 53 48 42 38 37 42 46 49 53 55 57 58 58 60 62 61 59 58

GFSFLT1_prec_cthk_039.txt.gz
RH
38 44 46 49 49 55 56 63 63 61 62 66 71 67 68 65 68 64 59 57 51 47 45 49 46 47 47 46 41 40 42 47
40 36 43 46 45 44 47 50 54 58 52 51 52 52 54 59 64 63 59 62 61 65 52 53 47 47 48 48 50 53 51 52
36 36 37 37 37 40 42 44 45 45 45 44 46 47 47 50 53 56 67 73 76 64 59 53 52 53 53 55 55 53 51 51
34 35 34 34 34 34 37 38 41 41 40 43 44 44 45 44 41 46 70 75 76 66 65 59 59 58 59 59 60 62 62 60
34 31 32 31 28 28 29 31 34 36 40 39 39 39 41 43 41 46 57 64 64 74 77 74 75 82 85 84 78 79 86 81
36 29 27 32 32 29 28 28 32 36 39 40 38 38 44 44 46 49 60 69 68 65 75 73 80 81 84 85 94 96 93 94
41 37 39 34 36 40 34 32 37 38 39 43 49 52 58 57 52 56 68 76 80 86 81 84 85 83 80 82 88 95 93 89
39 41 40 40 36 35 38 41 41 44 47 46 46 51 61 67 62 63 64 79 88 90 86 81 70 77 82 80 73 74 78 78
38 39 44 42 38 37 38 42 43 46 49 52 55 53 56 64 67 71 82 90 83 86 81 78 68 80 79 76 73 70 70 67
44 43 42 54 48 43 43 44 51 53 52 57 60 59 59 60 66 81 81 79 78 87 92 81 80 83 77 74 66 62 63 66
40 45 43 44 40 38 47 57 62 63 59 54 55 58 56 62 72 80 86 78 80 81 87 85 86 78 71 67 62 62 69 68
40 44 47 47 42 46 55 60 66 63 70 65 74 70 62 69 77 91 91 94 82 66 83 80 68 69 64 61 62 65 67 66
30 33 39 39 46 55 56 57 57 70 67 60 73 78 90 94 90 96 97 77 72 69 70 70 67 65 60 60 62 64 67 65
31 30 28 27 30 39 46 50 56 72 67 64 85 83 73 69 61 80 80 68 60 66 70 67 62 59 56 53 54 56 69 64
36 34 27 21 23 27 35 41 50 59 63 67 61 53 52 57 66 64 65 63 72 70 63 59 50 44 45 51 55 64 61 71
42 38 35 30 26 24 25 28 34 44 45 42 43 49 55 54 59 62 63 71 67 58 48 46 43 45 50 53 58 65 67 71
39 42 37 39 31 27 28 30 29 32 34 36 41 44 48 54 60 67 63 59 52 46 42 43 45 50 55 59 62 65 69 70
42 44 39 30 28 29 32 37 35 33 33 37 41 46 55 59 55 52 51 49 45 40 39 44 49 52 56 59 62 66 63 62
42 42 35 34 33 37 40 39 40 43 43 44 51 54 57 51 45 46 46 41 38 37 41 45 49 53 56 58 58 57 57 55

GFSFLT1_prec_cthk_045.txt.gz
RH
37 42 47 60 66 75 90 91 91 95 98 90 88 87 88 84 80 78 77 79 74 75 71 69 71 57 52 50 46 44 39 37
33 34 40 44 50 59 60 68 83 91 90 89 90 87 85 77 74 77 81 77 71 70 70 67 55 48 45 47 45 46 46 47
29 29 31 36 40 45 50 56 59 65 69 73 74 76 72 70 71 74 76 69 64 61 59 51 45 41 44 50 52 54 57 57
30 25 26 28 31 37 41 43 50 55 61 65 66 66 63 63 65 67 65 62 60 62 62 53 47 45 48 54 56 61 64 66
31 26 25 22 25 30 34 35 37 43 50 52 54 57 57 61 60 57 60 62 63 67 67 64 55 59 57 61 66 72 77 75
28 26 24 22 21 24 27 31 32 36 41 43 44 46 45 48 49 50 52 56 63 67 65 60 63 71 67 68 77 86 92 90
40 35 36 31 26 25 26 28 32 35 36 38 39 40 42 45 47 48 49 51 54 54 57 59 73 78 78 81 89 90 91 93
46 43 39 36 34 29 29 31 33 37 39 37 39 41 45 49 51 53 53 52 53 59 63 68 68 79 86 88 92 91 89 86
44 44 42 41 36 33 32 32 32 37 41 43 44 44 46 52 52 59 62 63 63 61 63 67 72 84 92 91 98 95 91 90
41 42 42 45 45 42 41 37 36 36 39 42 46 50 51 52 56 56 58 60 69 78 78 82 86 95 92 97 96 87 87 84
36 38 40 41 45 50 59 53 45 41 40 43 47 51 57 64 62 63 63 66 73 87 93 86 91 95 97 94 90 82 80 75
33 31 36 38 42 49 51 62 58 58 62 64 68 71 74 77 80 75 75 81 83 89 91 96 89 94 96 90 87 83 74 64
38 36 34 40 41 41 46 51 53 55 59 64 67 77 83 86 88 83 91 90 93 86 95 98 75 79 84 84 80 73 67 65
38 39 40 39 39 38 40 45 47 44 49 49 53 60 77 78 79 69 77 81 84 87 76 65 69 78 77 77 74 68 69 70
37 39 37 37 38 34 34 34 35 37 39 40 42 46 52 62 72 64 65 77 75 74 73 69 71 77 76 80 73 70 66 63
36 38 39 39 38 37 34 33 33 33 32 33 33 38 46 56 70 66 68 65 72 75 77 78 76 76 82 83 73 65 56 53
39 40 44 42 40 42 41 40 37 34 31 28 36 40 50 59 67 64 64 68 71 74 73 82 77 79 80 72 61 49 46 55
49 45 43 44 38 41 40 44 43 39 33 29 35 46 52 57 60 61 61 62 71 72 75 76 76 67 64 57 50 47 55 56
50 46 44 43 44 45 41 44 42 40 39 35 34 44 51 58 61 61 60 65 71 68 72 62 61 58 56 52 48 52 55 58

GFSFLT1_prec_cthk_048.txt.gz
RH
35 36 44 56 70 88 95 91 95 95 94 94 90 89 87 87 86 80 80 80 78 78 78 78 77 78 74 70 60 52 46 41
32 31 37 41 53 59 75 92 91 98 97 99 92 88 88 86 85 88 86 85 81 82 81 78 78 77 74 65 61 55 51 48
34 33 32 37 42 50 54 66 79 92 97 99 97 89 90 90 92 94 90 88 85 83 81 81 80 78 66 52 52 57 56 57
35 34 29 32 35 40 42 50 59 69 80 85 87 89 86 79 86 85 81 83 80 79 86 73 75 66 59 50 49 55 58 57
32 31 29 25 28 31 36 38 48 56 60 68 66 69 67 68 74 71 72 73 73 74 70 62 57 54 52 47 51 57 60 63
32 28 27 27 23 25 29 34 36 42 46 48 50 54 58 61 62 60 63 65 66 66 63 59 59 59 56 55 57 62 65 69
38 31 30 30 26 24 27 31 33 37 40 42 45 45 46 51 50 52 56 60 64 62 61 65 63 63 58 63 69 71 80 88
42 39 35 36 34 31 30 31 34 38 40 42 43 44 47 48 49 48 50 52 51 52 56 57 59 62 63 69 79 89 89 94
41 39 39 34 33 31 30 29 31 36 41 42 43 46 47 52 50 51 55 59 55 57 56 55 61 66 70 76 75 86 99 99
37 38 38 37 35 35 34 33 32 33 35 40 44 45 47 48 48 49 54 58 58 58 57 61 62 65 67 77 83 87 94 97
36 38 37 36 37 38 39 44 43 36 35 37 40 44 47 51 54 59 62 60 55 51 51 64 71 79 85 92 92 94 93 93
35 34 33 34 37 36 37 44 49 51 50 48 49 51 52 52 56 60 68 71 65 65 66 67 71 86 95 98 98 94 91 97
34 37 34 33 34 34 36 41 42 48 56 58 61 69 68 66 67 73 81 77 80 82 80 86 88 88 93 96 95 88 91 91
35 38 38 35 38 39 39 42 41 47 55 58 55 50 52 55 58 68 79 77 76 83 86 90 80 75 74 80 81 80 78 81
36 38 38 38 40 38 38 36 32 37 37 39 40 41 42 45 52 58 63 77 75 74 85 88 88 77 72 73 78 80 83 83
39 40 36 36 39 40 40 39 38 33 35 35 32 30 32 36 41 49 58 72 76 77 75 82 82 83 85 79 72 77 82 78
38 37 35 35 41 44 45 41 40 40 37 37 35 34 34 33 40 50 57 65 69 72 73 71 79 80 82 82 80 81 76 72
44 44 40 41 39 41 48 44 43 40 40 35 36 37 37 35 39 50 58 62 69 73 72 73 80 82 79 77 80 76 72 67
41 41 47 46 46 45 47 48 48 45 45 42 40 39 38 36 40 50 59 68 74 78 75 74 79 82 84 84 72 69 63 62

GFSFLT1_prec_cthk_054.txt.gz
RH
30 30 34 38 48 71 87 82 84 91 93 97 98 98 97 96 90 90 87 83 83 79 78 75 75 75 74 73 73 69 65 60
31 28 29 36 41 54 60 83 91 92 92 96 96 96 95 93 93 91 89 85 85 82 82 80 79 80 81 80 81 78 74 66
34 30 28 30 37 44 51 59 77 92 92 94 95 94 94 93 93 91 89 87 88 81 80 79 79 81 81 80 80 80 79 72
37 31 30 28 32 37 45 53 64 87 96 95 97 98 97 96 91 89 90 91 90 85 80 83 81 82 81 81 83 82 80 71
42 33 30 29 28 32 35 47 57 64 84 90 95 96 97 94 94 89 92 94 89 87 83 83 82 84 83 83 80 77 80 71
46 38 28 28 26 27 31 36 46 54 61 70 78 81 87 90 93 92 92 86 86 84 84 82 80 80 77 80 77 76 77 76
47 45 36 27 27 25 28 31 36 44 49 56 59 64 69 72 76 77 74 76 80 77 78 77 82 79 76 78 76 73 71 68
45 46 45 33 30 29 28 31 33 36 43 48 49 52 55 60 61 63 62 65 65 69 70 70 70 70 71 74 83 71 65 64
38 42 47 44 35 33 26 29 33 33 37 43 49 49 51 50 51 51 52 53 57 61 63 64 64 65 67 67 65 63 58 54
38 39 43 47 43 31 28 24 29 33 33 37 41 46 48 49 49 48 48 47 48 50 54 58 58 59 61 63 61 60 61 62
36 37 39 46 46 43 34 32 31 32 34 36 39 42 44 47 49 48 47 48 49 51 53 60 63 61 58 58 58 59 63 66
39 38 40 43 44 46 42 38 37 36 33 37 40 42 44 47 48 51 52 55 58 60 61 62 67 66 70 73 73 69 67 70
41 42 44 43 45 46 48 46 44 44 42 40 38 41 42 43 43 45 50 53 57 57 57 59 66 74 71 72 74 73 71 66
39 44 46 46 46 46 45 44 41 45 47 49 48 48 45 44 46 49 53 55 55 57 55 56 62 68 78 73 75 85 85 73
35 39 44 47 50 46 42 44 42 45 49 51 52 49 49 53 57 57 52 48 46 46 45 48 55 62 72 77 79 81 87 80
42 38 39 43 49 49 48 51 49 48 51 51 47 48 50 55 51 50 50 45 44 46 46 47 52 57 66 81 83 80 79 84
47 45 40 38 40 49 50 52 50 51 51 47 46 43 42 42 41 41 45 44 43 44 44 48 51 57 59 70 80 86 87 82
46 49 49 44 41 45 46 46 52 50 50 48 47 45 44 45 45 47 47 50 50 47 43 46 50 57 62 73 81 85 88 91
47 47 48 48 43 42 45 48 49 49 51 52 53 51 48 51 50 51 53 53 52 52 48 49 53 61 67 74 79 82 85 87

GFSFLT1_prec_cthk_057.txt.gz
RH
43 32 28 33 33 43 64 81 79 87 89 94 98 99 99 97 91 85 84 88 85 76 72 76 71 70 71 72 73 71 69 64
44 36 25 28 32 37 51 57 76 85 88 94 98 97 98 96 89 83 86 84 83 78 81 80 73 75 76 77 74 73 72 69
45 38 28 26 30 32 42 52 61 81 92 90 95 95 96 92 88 87 87 86 85 84 82 82 81 80 84 83 80 80 78 74
42 39 36 26 27 29 33 44 59 70 89 93 93 95 97 94 92 90 90 90 88 83 85 89 84 85 88 86 84 82 80 78
43 44 40 30 25 26 29 36 49 60 74 90 91 91 94 92 92 91 90 88 85 87 88 89 88 85 85 86 82 81 82 83
40 47 42 36 28 24 26 29 39 50 62 68 79 84 84 88 89 90 91 89 86 89 91 86 84 83 82 83 81 78 76 76
38 43 46 40 31 27 24 27 31 40 49 54 61 67 73 77 79 85 92 89 91 91 92 84 79 82 82 80 81 77 74 75
36 42 46 43 36 29 26 28 30 35 41 49 53 56 61 65 70 71 72 70 74 78 78 80 76 77 78 81 82 85 84 78
33 38 46 45 44 35 29 27 29 31 36 42 49 54 55 57 58 59 59 59 59 64 69 70 68 69 70 71 76 84 77 79
32 35 42 45 46 42 32 27 27 30 32 38 42 45 47 49 51 52 50 51 52 53 56 58 60 60 60 63 64 68 68 66
39 35 39 44 46 46 38 33 29 28 31 34 37 41 46 47 49 49 50 51 51 52 52 55 57 59 66 67 64 63 63 60
43 37 39 45 48 48 44 37 34 32 30 33 34 39 44 49 52 53 54 56 55 60 63 65 66 66 69 74 74 74 73 73
40 41 41 44 50 55 52 45 40 38 35 33 33 34 37 40 45 50 53 56 60 61 63 61 59 60 62 65 69 72 72 74
43 42 45 46 48 52 52 50 49 45 40 38 36 35 36 38 40 43 46 50 55 58 61 58 57 56 57 59 60 65 74 77
45 45 47 50 49 49 53 54 52 48 47 45 43 41 39 40 43 45 47 51 55 55 56 53 53 52 50 52 57 59 66 74
50 49 50 49 50 52 51 51 53 49 50 50 45 46 50 56 55 55 54 56 55 53 53 50 49 50 48 49 51 55 59 67
53 54 51 50 47 46 53 53 54 56 54 51 53 55 55 54 55 54 58 59 57 56 50 50 50 46 43 45 52 55 59 63
41 49 53 53 54 52 49 52 55 54 54 53 57 57 54 52 51 52 54 54 55 52 53 55 54 53 50 45 49 57 63 69
34 39 47 53 54 54 52 49 51 53 54 54 55 57 56 55 55 53 56 53 51 55 58 59 59 60 59 55 58 63 68 71

GFSFLT1_prec_cthk_060.txt.gz
RH
42 43 36 30 26 31 37 49 66 66 79 79 82 86 90 92 96 94 93 87 90 98 93 96 89 91 80 70 67 68 71 68
42 43 38 29 27 30 35 43 51 63 74 78 84 89 94 95 95 91 96 87 87 90 90 87 79 78 72 72 69 71 71 70
41 41 37 29 25 28 31 38 45 52 71 80 83 90 95 97 97 91 89 82 89 87 90 79 81 78 73 73 75 76 73 72
40 41 41 33 26 26 29 34 41 52 70 84 87 88 92 94 95 90 86 89 88 88 84 77 78 76 79 82 79 76 75 74
42 39 44 38 26 24 26 31 37 49 61 78 86 86 88 90 90 88 89 88 87 87 85 82 79 78 80 86 85 81 80 77
44 38 43 46 32 22 23 29 33 40 50 63 71 77 82 82 85 88 88 89 86 85 86 84 81 81 83 93 87 82 80 80
43 40 41 45 44 26 23 26 31 35 42 51 59 64 69 77 77 82 87 86 86 84 84 85 87 84 83 88 84 78 75 73
42 43 39 42 46 38 28 28 30 34 39 46 54 60 60 65 70 75 78 82 77 75 73 76 77 81 87 84 81 76 76 79
41 41 38 42 46 45 37 32 29 32 35 40 46 53 58 59 62 63 62 65 71 69 67 68 73 81 81 79 75 72 75 76
39 39 38 40 45 47 44 36 31 29 31 35 40 45 48 51 56 57 57 57 59 64 61 62 68 73 75 67 62 65 68 72
48 49 44 39 42 47 48 44 36 33 32 33 36 39 43 44 48 49 51 54 56 57 55 59 65 71 70 63 65 70 68 70
51 56 50 41 41 44 47 48 43 39 34 34 34 36 40 44 45 46 48 50 51 54 55 58 63 73 73 69 68 71 72 73
52 45 45 52 46 47 50 51 50 46 40 38 36 33 37 38 42 44 47 49 51 53 57 60 61 59 60 60 62 64 65 68
53 52 54 50 53 53 53 53 54 52 48 42 37 35 33 32 34 38 42 45 47 50 52 53 57 56 55 54 55 55 57 60
52 49 49 51 58 55 54 55 55 59 57 51 43 39 34 33 36 39 41 42 43 47 50 55 57 57 57 55 54 52 52 53
56 55 53 54 49 47 57 57 54 56 60 59 49 50 48 46 45 44 45 48 49 51 51 53 55 55 54 53 53 55 54 54
55 52 50 54 53 52 51 54 62 56 54 55 57 59 58 57 55 54 57 56 54 53 52 54 55 53 50 48 52 54 54 54
43 43 45 50 52 55 55 55 53 57 61 54 57 59 60 59 60 63 61 59 60 58 57 57 57 56 53 55 60 63 64 61
38 37 36 40 45 47 50 53 56 55 57 59 58 59 59 59 62 64 64 60 60 61 61 59 61 56 57 60 65 67 68 69

GFSFLT1_prec_cthk_066.txt.gz
RH
37 37 38 37 36 29 21 26 32 46 59 72 83 87 90 91 91 90 90 93 89 87 86 80 73 68 63 55 51 54 57 63
41 43 39 40 35 30 21 26 32 42 55 66 85 86 89 91 91 90 90 89 90 90 87 83 76 76 68 64 60 61 64 70
40 42 39 41 38 32 21 22 31 40 50 67 78 85 90 95 95 95 93 93 94 92 91 86 82 78 72 71 68 67 72 76
38 40 38 40 38 32 20 19 27 36 50 70 81 85 88 91 95 96 96 97 95 94 92 86 83 85 79 80 78 73 77 79
39 43 37 40 37 37 20 18 26 33 42 66 73 78 82 84 88 95 99 99 97 95 93 91 90 90 90 89 82 73 76 79
39 41 39 39 42 38 27 17 24 31 36 45 62 67 74 82 89 95 98 97 96 96 95 97 95 94 94 95 92 86 75 77
39 42 41 40 41 42 36 19 25 29 35 40 44 52 64 74 83 92 94 97 97 98 97 96 97 95 94 96 92 90 79 82
40 43 42 42 37 39 41 29 24 27 31 40 44 45 49 54 64 75 86 93 94 94 96 97 96 97 93 93 92 88 82 75
39 42 42 45 38 38 43 36 30 25 29 33 40 44 47 49 52 61 72 78 84 88 90 93 96 92 90 90 88 82 75 77
41 44 49 48 38 35 41 41 35 29 25 29 35 42 45 47 51 53 60 68 71 71 72 72 76 77 75 74 73 72 73 75
47 47 48 47 42 40 42 45 45 39 30 28 31 37 44 48 50 51 52 55 60 61 60 60 62 63 65 66 69 71 67 72
51 51 54 55 51 46 47 48 50 51 44 32 33 36 38 44 48 49 49 51 52 53 55 57 57 57 59 60 61 62 62 68
54 58 60 63 62 59 57 59 55 54 54 49 37 36 39 39 40 46 49 49 50 51 51 51 54 56 60 62 63 63 64 64
65 65 67 70 69 68 70 67 65 66 64 63 57 48 40 39 39 40 43 48 50 51 52 53 54 57 59 60 60 61 61 60
70 67 68 69 69 69 72 80 77 69 66 66 64 61 60 55 46 39 37 41 45 48 51 52 53 54 54 54 57 59 62 60
70 70 68 70 71 70 68 65 65 71 74 69 69 72 72 72 68 63 55 44 41 45 47 48 51 53 52 55 57 58 59 60
71 71 66 61 61 64 62 62 63 62 65 67 72 73 77 78 79 77 73 68 65 55 50 49 51 50 51 56 59 59 61 63
71 67 62 62 58 57 55 57 58 59 59 59 62 67 70 74 76 80 75 72 74 72 71 69 65 58 53 55 59 62 63 64
72 66 62 59 52 48 47 44 44 47 46 51 56 55 60 67 70 69 70 70 72 71 70 71 71 69 68 68 70 70 69 67

GFSFLT1_prec_cthk_069.txt.gz
RH
33 39 42 46 44 38 30 19 22 28 42 54 65 79 80 84 89 95 99 96 93 90 83 75 72 75 75 70 64 71 65 61
38 42 46 46 42 37 31 18 21 27 38 49 62 79 81 84 88 93 94 96 95 90 87 81 77 75 74 71 67 66 60 63
40 43 47 39 44 41 33 19 19 24 34 48 64 81 82 85 87 91 93 94 95 94 92 89 80 73 70 63 63 62 61 61
39 42 45 41 42 40 34 20 17 23 30 54 67 77 82 85 88 93 90 91 96 98 97 94 87 81 77 71 69 64 57 63
38 43 45 41 43 41 38 25 17 22 28 49 61 68 79 84 90 92 96 94 93 97 95 97 90 84 85 85 78 73 68 68
37 42 46 44 42 45 41 30 17 21 28 36 51 61 68 76 84 89 93 99 96 95 97 98 96 91 88 91 89 81 74 71
37 45 51 48 45 45 45 34 22 23 27 33 41 49 55 62 74 83 89 96 97 98 98 97 97 95 93 91 92 89 84 83
37 41 48 53 47 43 43 42 30 25 28 31 39 45 47 52 59 69 86 94 96 97 98 97 97 96 95 96 96 96 94 92
34 38 47 52 48 46 41 44 37 30 27 29 35 41 45 48 54 62 70 86 94 94 94 97 98 96 94 92 95 96 98 94
38 39 48 53 55 51 43 45 45 37 28 27 32 37 42 44 48 55 64 73 80 88 91 94 97 97 95 95 95 96 96 93
45 46 54 57 60 54 53 53 51 50 42 33 30 34 40 43 45 47 52 58 66 69 74 76 78 82 86 89 90 91 91 91
49 53 58 58 59 57 58 59 60 59 58 51 40 35 39 44 47 48 49 52 56 58 60 61 64 65 68 75 78 79 77 77
57 61 63 65 67 67 67 66 65 63 62 61 55 46 42 43 44 48 53 54 55 57 59 59 59 60 60 59 61 63 63 63
65 67 68 71 74 74 71 72 70 67 63 63 64 61 55 52 46 44 47 54 58 60 60 60 59 60 61 61 62 63 64 66
76 73 74 77 78 81 81 81 80 78 76 73 73 73 69 64 60 57 53 50 49 53 58 61 62 63 60 60 60 61 61 62
76 76 77 75 75 81 80 76 76 74 74 76 76 76 74 75 74 73 69 62 58 56 52 51 55 58 58 58 59 59 59 59
72 68 70 70 69 68 71 73 73 71 69 70 72 73 72 75 79 83 82 83 80 75 65 59 57 53 49 53 57 58 60 62
81 75 68 64 58 57 57 59 59 60 60 62 64 66 67 69 73 76 80 83 86 85 83 82 75 68 66 64 62 61 60 61
88 86 83 71 64 59 60 56 48 45 44 45 46 48 49 53 57 63 70 74 76 79 79 80 79 76 75 75 80 83 85 81

GFSFLT1_prec_cthk_072.txt.gz
RH
38 39 40 42 45 48 46 36 26 25 27 32 44 59 67 83 90 95 99 99 97 98 98 92 74 59 72 69 64 64 64 66
39 40 42 47 47 51 42 37 24 24 25 32 43 60 73 86 91 95 98 99 98 98 90 85 65 59 69 69 71 71 68 70
39 39 40 47 46 45 45 36 23 23 26 31 50 66 80 87 92 94 95 98 98 97 91 84 71 72 71 75 77 81 77 77
40 37 39 46 45 44 45 37 25 21 26 31 56 64 76 85 89 93 97 94 94 93 95 93 83 79 77 77 80 84 79 82
39 37 41 46 46 43 45 39 30 19 26 29 51 58 75 81 85 90 93 96 97 98 97 95 94 85 81 75 75 74 75 69
36 35 39 48 50 44 46 43 32 18 27 30 40 57 65 72 79 87 92 95 96 97 98 96 96 94 87 76 80 68 77 74
38 39 41 47 50 45 47 47 37 21 25 31 37 46 54 61 69 78 86 92 97 95 94 99 97 95 90 83 79 79 82 78
37 38 40 44 47 48 46 48 45 27 23 31 36 44 49 53 59 65 71 86 92 95 97 97 96 97 96 86 89 88 87 87
36 35 37 39 49 50 49 46 47 35 26 30 34 40 45 49 51 56 65 75 89 94 96 97 97 97 97 95 90 93 93 91
38 39 40 40 49 53 58 47 48 40 31 28 32 37 42 46 48 51 60 68 80 90 94 99 96 98 98 97 96 94 94 93
45 46 47 50 56 61 63 56 50 47 39 30 30 35 40 43 46 49 53 61 70 73 80 89 94 97 98 98 97 95 96 95
58 56 54 53 60 67 65 60 58 55 53 45 37 33 36 41 45 48 48 50 54 60 65 69 74 77 82 87 91 90 89 87
66 64 60 60 65 73 69 66 66 65 62 61 55 48 39 36 41 46 49 50 51 53 54 54 57 63 67 66 69 72 74 76
70 68 66 66 70 73 73 73 71 69 68 69 68 64 56 50 44 42 45 48 50 53 54 55 57 57 57 59 60 62 63 64
77 76 74 74 75 77 78 79 78 79 80 80 75 73 72 68 63 58 55 50 49 49 52 55 55 57 59 61 61 61 62 63
81 83 82 83 86 88 88 89 89 86 83 79 79 80 78 78 77 77 76 75 69 64 60 56 54 54 57 60 62 61 60 60
74 74 78 84 87 88 87 90 92 88 85 80 77 78 80 79 77 77 78 81 85 83 84 85 82 73 65 61 60 61 63 65
78 75 72 75 72 72 71 71 72 71 73 72 70 67 69 72 73 74 74 74 76 78 80 83 84 87 87 88 86 84 81 78
95 93 86 79 71 68 64 63 62 60 58 56 55 53 52 54 57 58 57 56 60 67 72 74 76 78 78 81 83 85 87 85

GFSFLT1_prec_cthk_075.txt.gz
RH
33 35 42 46 46 43 45 49 46 38 28 29 33 44 53 63 72 83 93 98 98 94 97 98 98 97 80 75 69 71 72 62
32 33 40 46 46 43 46 49 47 39 26 28 32 43 58 71 82 91 93 97 99 99 97 99 98 95 78 66 67 67 69 65
29 32 39 44 46 43 42 46 48 38 23 28 34 58 72 81 88 92 91 96 98 98 98 99 95 91 76 67 69 66 66 64
25 33 39 42 45 43 38 46 46 39 25 29 38 61 68 81 88 92 91 95 99 99 98 97 94 88 68 66 71 76 73 70
28 35 39 42 43 43 43 46 45 40 26 29 38 60 65 81 86 92 97 95 94 99 99 95 92 81 65 66 73 77 79 83
33 39 43 46 47 45 44 48 46 39 27 29 38 51 64 70 77 87 92 96 96 94 92 91 91 83 74 72 70 78 83 84
40 43 42 42 46 46 47 49 52 43 29 30 36 46 55 63 69 76 87 92 97 97 96 95 93 89 82 78 79 78 78 81
44 47 42 41 43 46 49 49 56 50 32 30 35 44 51 57 60 64 73 79 90 96 98 97 96 97 95 88 87 85 75 80
47 47 45 43 43 47 50 53 55 51 36 30 34 41 47 52 56 60 63 66 83 92 96 97 99 98 96 97 90 85 84 81
51 50 48 45 47 52 55 56 61 50 37 32 33 37 42 47 50 53 56 63 69 86 94 94 96 97 97 98 96 88 87 87
51 55 51 49 50 52 58 61 66 52 40 35 34 36 41 43 45 47 53 59 64 69 83 94 96 97 98 98 98 94 88 91
64 59 55 54 53 54 61 66 65 60 51 40 37 34 39 43 44 45 47 53 59 63 67 72 80 91 91 94 97 97 93 89
71 66 64 62 62 62 65 69 66 63 62 57 49 43 40 41 44 46 49 50 50 54 55 56 58 63 67 69 69 72 76 79
76 72 68 68 68 69 68 69 71 72 70 70 68 61 53 47 44 46 50 52 52 52 53 53 53 52 54 55 58 60 63 68
79 78 81 75 75 74 76 74 77 79 76 75 73 74 74 69 61 55 51 51 54 55 55 56 57 57 58 59 59 60 61 63
84 82 82 84 84 83 83 80 81 84 83 84 84 84 82 79 77 75 74 72 68 65 64 60 58 57 58 58 58 60 63 64
90 88 84 86 90 92 89 89 86 87 88 87 88 85 82 82 83 80 78 80 80 82 83 83 84 84 78 79 77 71 63 59
79 79 79 81 83 84 86 85 87 90 87 87 85 81 77 77 77 77 78 77 78 77 77 78 79 79 81 82 82 84 85 85
95 85 77 79 78 76 76 74 74 75 71 65 65 65 63 62 62 60 60 62 63 64 64 66 67 70 73 76 78 81 84 86

GFSFLT1_prec_cthk_078.txt.gz
RH
32 37 39 40 45 51 48 48 48 52 44 34 25 27 32 46 56 61 68 73 91 97 98 91 92 98 95 89 79 82 79 70
31 34 36 38 47 50 48 47 50 53 47 32 25 29 33 50 60 69 76 89 99 96 98 93 98 97 96 94 91 86 80 68
29 32 35 39 45 49 49 50 50 50 49 31 24 26 43 62 72 80 89 95 95 98 95 99 99 98 97 94 88 79 78 70
28 31 33 38 44 46 51 51 48 49 48 33 23 28 52 61 74 87 90 93 93 97 99 98 99 98 98 93 79 73 71 77
25 31 29 34 43 49 54 55 48 51 49 33 22 31 51 61 76 82 88 91 93 98 97 98 98 98 98 91 74 73 73 70
28 23 25 30 44 50 55 54 48 52 47 34 27 33 48 56 64 75 88 92 94 98 98 98 98 97 95 89 76 74 75 77
27 23 27 39 46 52 54 54 50 53 47 33 26 34 46 54 59 65 80 90 96 97 99 98 97 95 94 84 71 69 77 79
30 30 36 45 51 53 54 54 51 52 52 38 28 36 44 51 57 63 68 74 88 94 96 96 95 96 95 90 75 75 79 81
34 42 46 53 53 53 55 58 55 52 56 42 29 34 42 48 53 59 63 68 72 89 95 99 97 95 95 91 82 82 82 83
41 46 52 52 54 53 57 61 55 53 52 44 35 35 41 47 49 52 55 60 66 75 91 98 98 99 95 94 90 87 86 88
49 54 59 58 55 55 58 63 62 60 54 41 37 38 41 46 48 49 50 54 60 65 77 90 93 96 98 95 96 95 94 91
56 61 67 63 59 59 60 65 64 61 58 48 39 40 41 44 47 47 48 53 58 62 65 73 86 94 97 96 94 95 97 96
65 67 71 68 67 65 67 69 67 66 64 59 46 42 42 46 48 49 49 50 54 58 60 64 69 73 77 79 79 80 82 85
75 77 73 70 69 69 70 71 68 70 74 69 60 51 46 47 50 52 53 53 53 54 54 55 55 57 60 64 66 67 68 69
77 79 81 79 78 77 74 75 74 76 81 79 74 68 62 58 56 54 54 56 57 58 58 59 59 59 59 60 61 60 60 61
84 84 85 83 82 83 82 80 80 83 87 87 85 80 75 72 69 67 66 65 65 65 64 65 68 64 61 62 62 61 62 64
88 90 89 89 88 87 87 86 88 90 91 90 91 87 86 87 87 85 81 76 73 74 76 78 77 75 76 77 79 79 79 79
95 94 94 94 94 91 92 93 96 94 95 92 91 92 93 93 92 90 88 86 85 83 81 80 79 77 78 81 84 86 89 90
89 88 88 88 87 86 87 90 91 89 89 90 88 86 86 88 88 85 85 84 83 82 80 78 77 75 74 74 76 81 83 81